Torna al catalogo

CZ-6A DEB

AttivoSSO
NORAD 56670·DEBRIS·🇨🇳 China

Lanciato Nov 11, 2022 da Taiyuan Satellite Launch Center

Loading…

Prossimi Passaggi (prossime 24 ore)

TLE

In scadenzaSource: Space-Track

Epoca: Sep 6, 2026, 06:24 UTC

1 56670U 22151AGW 26249.26675346  .00000955  00000-0  49477-3 0  9990
2 56670  98.8113 250.5034 0045359  51.7732 308.7512 14.16728147174050

Traccia CZ-6A DEB in tempo reale con AllMySat

Download on the App Store